TimeCDT,TemperatureF,Dew PointF,Humidity,Sea Level PressureIn,VisibilityMPH,Wind Direction,Wind SpeedMPH,Gust SpeedMPH,PrecipitationIn,Events,Conditions,WindDirDegrees,DateUTC
12:53 AM,69.1,62.1,78,30.09,10.0,ESE,4.6,-,N/A,,Clear,120,2013-08-01 05:53:00
1:53 AM,68.0,62.1,81,30.11,10.0,Calm,Calm,-,N/A,,Clear,0,2013-08-01 06:53:00
2:53 AM,66.9,63.0,87,30.11,10.0,South,3.5,-,N/A,,Clear,180,2013-08-01 07:53:00
3:53 AM,66.9,63.0,87,30.05,10.0,SSW,10.4,-,N/A,,Clear,200,2013-08-01 08:53:00
4:53 AM,69.1,62.1,78,30.04,10.0,Calm,Calm,-,N/A,,Clear,0,2013-08-01 09:53:00
5:53 AM,68.0,62.1,81,30.05,10.0,SE,3.5,-,N/A,,Clear,140,2013-08-01 10:53:00
6:53 AM,64.9,61.0,87,30.07,10.0,North,3.5,-,N/A,,Clear,350,2013-08-01 11:53:00
7:53 AM,68.0,63.0,84,30.06,10.0,ESE,6.9,-,N/A,,Clear,120,2013-08-01 12:53:00
8:53 AM,73.9,64.0,71,30.05,10.0,South,6.9,-,N/A,,Clear,170,2013-08-01 13:53:00
9:53 AM,79.0,64.0,60,30.03,10.0,SSE,11.5,-,N/A,,Clear,160,2013-08-01 14:53:00
10:53 AM,84.0,60.1,44,30.02,10.0,SSE,13.8,-,N/A,,Clear,160,2013-08-01 15:53:00
11:53 AM,88.0,59.0,37,30.01,10.0,South,17.3,21.9,N/A,,Clear,170,2013-08-01 16:53:00
12:53 PM,89.1,59.0,36,30.00,10.0,Variable,5.8,-,N/A,,Clear,0,2013-08-01 17:53:00
1:53 PM,90.0,62.1,39,29.96,10.0,South,6.9,18.4,N/A,,Partly Cloudy,190,2013-08-01 18:53:00
2:53 PM,91.9,62.1,37,29.91,10.0,South,13.8,-,N/A,,Clear,170,2013-08-01 19:53:00
3:53 PM,93.9,64.0,37,29.88,10.0,SSE,12.7,23.0,N/A,,Scattered Clouds,160,2013-08-01 20:53:00
4:53 PM,93.0,63.0,37,29.84,10.0,South,18.4,28.8,N/A,,Clear,180,2013-08-01 21:53:00
5:53 PM,93.9,64.0,37,29.80,10.0,South,17.3,28.8,N/A,,Clear,170,2013-08-01 22:53:00
6:53 PM,91.0,64.9,42,29.80,10.0,South,17.3,25.3,N/A,,Clear,180,2013-08-01 23:53:00
7:53 PM,90.0,64.9,43,29.78,10.0,South,15.0,25.3,N/A,,Clear,170,2013-08-02 00:53:00
8:53 PM,88.0,64.0,45,29.79,10.0,South,8.1,18.4,N/A,,Clear,180,2013-08-02 01:53:00
9:53 PM,84.9,64.9,51,29.75,10.0,South,13.8,20.7,N/A,,Clear,170,2013-08-02 02:53:00
10:53 PM,82.0,64.9,56,29.76,10.0,South,15.0,19.6,N/A,,Clear,180,2013-08-02 03:53:00
11:53 PM,78.1,63.0,60,29.85,10.0,NNE,27.6,35.7,N/A,,Clear,20,2013-08-02 04:53:00